Regional Weather Roundup
Issued by NWS Midland/Odessa, TX

Skip options and go directly to product.
Home | Oldest Version | Next Version | Current Version | All | Text Only | Save Text | Print | Product List | Glossary On

Skip product version selection by date and time.   
799
ASUS44 KMAF 290110
RWRMAF
MIDLAND AREA WEATHER ROUNDUP
NATIONAL WEATHER SERVICE MIDLAND TX
800 PM CDT THU JUL 28 2016

...IN SOUTHWEST TEXAS AND SOUTHEAST NEW MEXICO...

CITY           SKY/WX    TMP DP  RH WIND       PRES   REMARKS
ALPINE         CLEAR     82  58  43 SE13      30.13S
ANDREWS        FAIR      90  58  34 SE8       30.00R
ARTESIA        SUNNY     93  57  29 SE10G17   29.98S
BIG SPRING     CLOUDY    81  64  57 E20G31    30.00R
CARLSBAD       MOSUNNY   91  58  32 S15       29.97F
DRYDEN           N/A     87  62  43 SE15      29.95R
FORT STOCKTON  PTCLDY    89  61  38 S15G23    29.98R
GUAD PASS      SUNNY     82  53  36 E22       30.15R
HOBBS          CLEAR     90  55  31 SE9       30.03S
MARFA          CLEAR     82  58  43 E15       30.10S
MIDLAND AIRPK  LGT RAIN  92  58  32 NE5       29.98R
MIDLAND INTL   PTCLDY    93  57  29 E5        29.97R
ODESSA         MOCLDY    93  57  29 SE8       29.98S
PECOS          CLEAR     94  57  28 E13       29.93S
PRESIDIO       FAIR      92  58  31 NE21      29.92R
SEMINOLE       CLEAR     91  55  30 S3        30.02S
SNYDER           N/A     85  67  54 E12       29.98R
WINK           CLEAR     93  57  29 SE10      29.94S
$$
...OTHER STATIONS IN TEXAS...

CITY           SKY/WX    TMP DP  RH WIND       PRES   REMARKS
ABILENE        CLOUDY    80  66  62 W8        29.96R
AMARILLO       CLEAR     90  53  28 SE6       30.06R
AUSTIN         CLOUDY    80  73  79 S10       29.96R
BROWNSVILLE    PTCLDY    86  76  71 E13       29.91R
CORPUS CHRISTI MOCLDY    86  75  69 SE14      29.94R
DALLAS FTW     CLOUDY    86  70  58 S21       29.92R
DEL RIO        CLOUDY    86  69  56 S9        29.92R
EL PASO        PTSUNNY   95  50  21 E12       29.98S
HOUSTON INT    MOCLDY    81  75  82 E6        29.97R
LUBBOCK        PTCLDY    92  56  29 SE7       30.01R
SAN ANGELO     CLOUDY    95  57  27 SE10      29.94R
SAN ANTONIO    CLOUDY    79  70  74 S9        29.99R
WACO           PTCLDY    86  70  58 E7        29.93R
WICHITA FALLS  NOT AVBL
$$
...OTHER LOCATIONS IN NEW MEXICO...

CITY           SKY/WX    TMP DP  RH WIND       PRES   REMARKS
ALAMAGORDO     SUNNY     95  46  18 SW3       30.00S
ALBUQUERQUE    CLOUDY    89  46  22 SE17      30.10S
CANNON AFB     SUNNY     91  53  28 SE8       30.08
CLOVIS         SUNNY     90  52  27 S6        30.08R
HOLLOMAN AFB   SUNNY     97  47  18 W7        29.97
ROSWELL        MOSUNNY   96  50  20 NE5       29.98S
RUIDOSO          N/A     79  41  25 SE9       30.29S
SANTA FE       MOSUNNY   90  37  15 N12G20    30.18S
TRUTH OR CONSE FAIR      95  47  19 SE6       30.04F
TUCUMCARI      CLOUDY    93  51  23 S14G20    30.02R
$$

USA.gov is the U.S. government's official web portal to all federal, state and local government web resources and services.